Starlink 31236

operational
NORAD ID: 58841 Int'l Des: 2024-017 Owner: SPXS Country: US Constellation: starlink
LEOCIRCULAR

Über Starlink 31236

Beschreibung wird geladen...

Live-Position

3D-Globus wird geladen...

Nächste Überflüge

Höhenverlauf

Altitude vs Time

uPlot chart will show altitude changes over time

Zweizeiliger Elementsatz

1 58841U 24017R 25352.95575015 .00001044 00000-0 47388-4 0 9997
2 58841 53.1596 219.4511 0001427 94.3170 265.7994 15.30188713107690
Epoch: 18. Dez. 2025 • Age: 21 hours

Aktueller Status

Höhe 477.4 km
Geschwindigkeit 7.63 km/s
Subsatellitenpunkt 36.13°N, 133.06°W
Startdatum 24. Jan. 2024
Alter 1.9 years
Typ internet

Technische Details

Klassifizierung Payload
Masse 730.00 kg
Trockenmasse 700.00 kg
Gesamtmasse 730.00 kg
Länge 0.30 m
Durchmesser 4.10 m
Spannweite 29.00 m
Form Box + pan
Hersteller SPXS
Bus-Typ Starlink V2M
Phasenstatus In Orbit
Besitzer/Staat SPXS/US

Große Konstellationen

Loading constellations...